QPF
0.00 0.00 0.03 0.02 0.00 0.00 0.00 0.01 0.00 0.00 0.00 0.01 0.02 0.01 0.00 0.00 0.00 0.00 0.00 0.00 0.00 0.00 0.00 0.00 0.00 0.00 0.00 0.00 0.00 0.00 0.00 0.00 0.00 0.00 0.00 0.00 0.00 0.00
0.01 0.00 0.01 0.03 0.01 0.00 0.00 0.00 0.00 0.00 0.01 0.01 0.00 0.00 0.00 0.00 0.00 0.00 0.00 0.00 0.00 0.00 0.00 0.00 0.00 0.00 0.00 0.00 0.00 0.00 0.00 0.00 0.00 0.00 0.00 0.00 0.00 0.00
0.00 0.01 0.01 0.03 0.06 0.07 0.03 0.00 0.01 0.01 0.01 0.00 0.00 0.00 0.00 0.00 0.00 0.00 0.00 0.00 0.00 0.00 0.00 0.00 0.00 0.00 0.00 0.00 0.00 0.00 0.00 0.00 0.00 0.00 0.00 0.00 0.00 0.00
0.00 0.00 0.01 0.02 0.03 0.05 0.04 0.01 0.01 0.01 0.01 0.01 0.00 0.00 0.00 0.00 0.00 0.00 0.00 0.00 0.00 0.00 0.00 0.00 0.00 0.00 0.00 0.00 0.00 0.00 0.00 0.00 0.00 0.00 0.00 0.00 0.00 0.00
0.00 0.00 0.01 0.02 0.03 0.03 0.01 0.00 0.00 0.00 0.00 0.00 0.00 0.00 0.00 0.00 0.00 0.00 0.00 0.00 0.00 0.00 0.00 0.00 0.00 0.00 0.00 0.00 0.00 0.00 0.00 0.00 0.00 0.00 0.00 0.00 0.00 0.00
0.00 0.00 0.01 0.01 0.01 0.01 0.01 0.00 0.00 0.00 0.00 0.00 0.00 0.00 0.00 0.00 0.00 0.00 0.00 0.00 0.00 0.00 0.00 0.00 0.00 0.00 0.00 0.00 0.00 0.00 0.00 0.00 0.00 0.00 0.00 0.00 0.00 0.00
0.00 0.00 0.00 0.01 0.01 0.01 0.01 0.00 0.00 0.00 0.00 0.00 0.00 0.00 0.00 0.00 0.00 0.00 0.00 0.00 0.00 0.00 0.00 0.00 0.00 0.00 0.00 0.00 0.00 0.00 0.00 0.00 0.00 0.00 0.00 0.00 0.00 0.00
0.00 0.00 0.00 0.00 0.00 0.00 0.00 0.00 0.00 0.00 0.00 0.00 0.00 0.00 0.00 0.00 0.00 0.00 0.00 0.00 0.00 0.00 0.00 0.00 0.00 0.00 0.00 0.00 0.00 0.00 0.00 0.00 0.00 0.00 0.00 0.00 0.00 0.00
0.00 0.00 0.00 0.00 0.00 0.00 0.00 0.00 0.00 0.00 0.00 0.00 0.00 0.00 0.00 0.00 0.00 0.00 0.00 0.00 0.00 0.00 0.00 0.00 0.00 0.00 0.00 0.00 0.00 0.00 0.00 0.00 0.00 0.00 0.00 0.00 0.00 0.00
0.00 0.00 0.00 0.00 0.00 0.00 0.00 0.00 0.00 0.00 0.00 0.00 0.00 0.00 0.00 0.00 0.00 0.00 0.00 0.00 0.00 0.00 0.00 0.00 0.00 0.00 0.00 0.00 0.00 0.00 0.00 0.00 0.00 0.00 0.00 0.00 0.00 0.00
0.00 0.00 0.00 0.00 0.00 0.00 0.00 0.00 0.00 0.00 0.00 0.00 0.00 0.00 0.00 0.00 0.00 0.00 0.00 0.00 0.00 0.00 0.00 0.00 0.00 0.00 0.00 0.00 0.00 0.00 0.00 0.00 0.00 0.00 0.00 0.00 0.00 0.00
0.00 0.00 0.00 0.00 0.00 0.00 0.00 0.00 0.00 0.00 0.00 0.00 0.00 0.00 0.00 0.00 0.00 0.00 0.00 0.00 0.00 0.00 0.00 0.00 0.00 0.00 0.00 0.00 0.00 0.00 0.00 0.00 0.00 0.00 0.00 0.00 0.00 0.00
0.00 0.00 0.00 0.00 0.00 0.00 0.00 0.00 0.00 0.00 0.00 0.00 0.00 0.00 0.00 0.00 0.00 0.00 0.00 0.00 0.00 0.00 0.00 0.00 0.00 0.00 0.00 0.00 0.00 0.00 0.00 0.00 0.00 0.00 0.00 0.00 0.00 0.00
0.00 0.00 0.00 0.00 0.00 0.00 0.00 0.00 0.00 0.00 0.00 0.00 0.00 0.00 0.00 0.00 0.00 0.00 0.00 0.00 0.00 0.00 0.00 0.00 0.00 0.00 0.00 0.00 0.00 0.00 0.00 0.00 0.00 0.00 0.00 0.00 0.00 0.00
0.00 0.00 0.00 0.00 0.00 0.00 0.00 0.00 0.00 0.00 0.00 0.00 0.00 0.00 0.00 0.00 0.00 0.00 0.00 0.00 0.00 0.00 0.00 0.00 0.00 0.00 0.00 0.00 0.00 0.00 0.00 0.00 0.00 0.00 0.00 0.00 0.00 0.00
0.00 0.00 0.00 0.00 0.00 0.00 0.00 0.00 0.00 0.00 0.00 0.00 0.00 0.00 0.00 0.00 0.00 0.00 0.00 0.00 0.00 0.00 0.00 0.00 0.00 0.00 0.00 0.00 0.00 0.00 0.00 0.00 0.00 0.00 0.00 0.00 0.00 0.00
0.00 0.00 0.00 0.00 0.00 0.00 0.00 0.00 0.00 0.00 0.00 0.00 0.00 0.00 0.00 0.00 0.00 0.00 0.00 0.00 0.00 0.00 0.00 0.00 0.00 0.00 0.00 0.00 0.00 0.00 0.00 0.00 0.00 0.00 0.00 0.00 0.00 0.00
0.00 0.00 0.00 0.00 0.00 0.00 0.00 0.00 0.00 0.00 0.00 0.00 0.00 0.00 0.00 0.00 0.00 0.00 0.00 0.00 0.00 0.00 0.00 0.00 0.00 0.00 0.00 0.00 0.00 0.00 0.00 0.00 0.00 0.00 0.00 0.00 0.00 0.00
0.00 0.00 0.00 0.00 0.00 0.00 0.00 0.00 0.00 0.00 0.00 0.00 0.00 0.00 0.00 0.00 0.00 0.00 0.00 0.00 0.00 0.00 0.00 0.00 0.00 0.00 0.00 0.00 0.00 0.00 0.00 0.00 0.00 0.00 0.00 0.00 0.00 0.00
0.00 0.00 0.00 0.00 0.00 0.00 0.00 0.00 0.00 0.00 0.00 0.00 0.00 0.00 0.00 0.00 0.00 0.00 0.00 0.00 0.00 0.00 0.00 0.00 0.00 0.00 0.00 0.00 0.00 0.00 0.00 0.00 0.00 0.00 0.00 0.00 0.00 0.00
0.00 0.00 0.00 0.00 0.00 0.00 0.00 0.00 0.00 0.00 0.00 0.00 0.00 0.00 0.00 0.00 0.00 0.00 0.00 0.00 0.00 0.00 0.00 0.00 0.00 0.00 0.00 0.00 0.00 0.00 0.00 0.00 0.00 0.00 0.00 0.00 0.00 0.00
0.00 0.00 0.00 0.00 0.00 0.00 0.00 0.00 0.00 0.00 0.00 0.00 0.00 0.00 0.00 0.00 0.00 0.00 0.00 0.00 0.00 0.00 0.00 0.00 0.00 0.00 0.00 0.00 0.00 0.00 0.00 0.00 0.00 0.00 0.00 0.00 0.00 0.00
0.00 0.00 0.00 0.00 0.00 0.00 0.00 0.00 0.00 0.00 0.00 0.00 0.00 0.00 0.00 0.00 0.00 0.00 0.00 0.00 0.00 0.00 0.00 0.00 0.00 0.00 0.00 0.00 0.00 0.00 0.00 0.00 0.00 0.00 0.00 0.00 0.00 0.00
MSLP
1011.62 1012.67 1013.07 1012.91 1012.79 1013.41 1013.87 1014.60 1015.54 1017.00 1018.15 1018.71 1019.80 1020.51 1020.91 1021.64 1022.57 1023.09 1023.78 1024.26 1024.36 1024.49 1024.71 1024.74 1025.43 1026.15 1026.57 1026.89 1027.05 1027.29 1027.45 1027.49 1027.76 1027.82 1028.10 1028.07 1027.94 1027.76
1010.97 1011.94 1012.81 1012.73 1012.38 1013.24 1013.60 1013.93 1015.06 1016.07 1017.74 1018.59 1019.86 1021.01 1021.39 1022.15 1023.35 1023.54 1024.56 1025.08 1025.45 1025.53 1025.51 1025.47 1026.14 1026.60 1026.92 1027.32 1027.62 1027.92 1028.16 1028.14 1028.10 1028.19 1028.47 1028.45 1028.26 1028.08
1010.08 1010.91 1012.24 1012.79 1013.03 1013.59 1013.68 1014.04 1015.01 1015.89 1017.40 1019.04 1020.08 1021.57 1022.51 1022.76 1023.29 1023.76 1025.15 1025.46 1026.20 1025.87 1026.60 1026.56 1026.82 1027.11 1027.32 1027.59 1027.93 1028.20 1028.54 1028.77 1028.57 1028.62 1028.55 1028.63 1028.52 1028.34
1009.27 1010.41 1011.48 1012.96 1013.16 1013.91 1013.84 1014.53 1015.21 1015.67 1016.81 1018.58 1020.28 1021.60 1022.63 1023.46 1023.96 1023.79 1024.65 1026.09 1025.72 1026.70 1027.04 1027.37 1027.39 1027.76 1027.86 1028.23 1028.45 1028.60 1028.81 1029.07 1029.20 1029.05 1028.96 1029.11 1028.91 1028.70
1009.24 1009.85 1011.01 1012.43 1013.07 1013.71 1013.98 1014.24 1015.16 1015.72 1016.64 1018.03 1019.81 1021.29 1022.84 1023.81 1024.26 1024.73 1025.48 1025.80 1026.23 1026.94 1027.33 1027.63 1027.59 1028.06 1028.02 1028.32 1028.57 1028.78 1029.07 1029.00 1029.09 1029.21 1029.29 1029.39 1029.32 1028.95
1008.99 1009.65 1010.78 1011.68 1012.58 1013.36 1013.67 1014.37 1015.02 1015.90 1016.52 1017.66 1019.03 1020.58 1021.68 1023.01 1023.68 1024.71 1025.43 1025.86 1026.49 1027.18 1027.16 1028.04 1027.94 1028.24 1028.28 1028.45 1028.76 1029.06 1029.15 1029.23 1029.11 1029.29 1029.37 1029.36 1029.26 1029.06
1009.34 1009.90 1010.72 1011.46 1012.31 1013.18 1013.99 1014.60 1015.10 1015.85 1016.64 1017.42 1018.64 1020.28 1021.37 1022.28 1022.76 1023.76 1024.73 1025.75 1026.83 1027.27 1027.29 1028.02 1028.04 1028.24 1028.39 1028.51 1028.78 1028.98 1029.07 1029.06 1029.13 1029.32 1029.20 1029.12 1029.00 1028.72
1009.88 1010.64 1011.28 1012.09 1012.83 1013.43 1013.97 1014.72 1015.28 1015.88 1016.73 1017.33 1018.46 1019.42 1020.22 1020.76 1021.76 1022.72 1024.23 1025.71 1026.91 1027.30 1027.17 1027.67 1028.09 1027.87 1027.81 1028.03 1028.43 1028.81 1028.93 1029.09 1029.16 1029.07 1028.92 1028.83 1028.76 1028.62
1010.16 1011.16 1012.10 1012.78 1013.24 1014.23 1014.99 1015.16 1015.73 1016.74 1017.17 1016.93 1017.77 1018.51 1019.41 1019.92 1020.73 1022.37 1023.65 1024.65 1026.00 1027.04 1027.02 1027.62 1027.84 1027.61 1027.36 1027.73 1028.21 1028.58 1028.83 1028.79 1028.92 1028.88 1028.58 1028.57 1028.53 1028.35
1010.33 1010.98 1011.80 1013.02 1013.80 1014.34 1015.31 1016.34 1017.30 1017.86 1018.16 1018.04 1018.05 1018.77 1019.18 1019.93 1020.65 1021.87 1023.45 1024.97 1026.36 1026.90 1026.96 1027.29 1027.53 1027.45 1027.33 1027.52 1028.08 1028.43 1028.46 1028.27 1028.36 1028.28 1028.17 1028.14 1028.03 1027.85
1011.23 1011.57 1012.11 1013.13 1013.98 1014.54 1015.32 1016.95 1018.39 1019.33 1019.59 1019.48 1019.60 1019.89 1020.30 1020.86 1021.23 1022.23 1023.60 1024.37 1026.20 1027.10 1027.03 1026.99 1027.18 1027.29 1027.54 1027.97 1028.19 1028.14 1028.18 1028.16 1028.05 1027.92 1027.83 1027.64 1027.51 1027.30
1012.40 1012.89 1013.24 1013.88 1014.83 1015.49 1016.10 1017.28 1018.86 1020.36 1020.85 1021.46 1021.84 1021.77 1021.87 1022.25 1022.69 1023.02 1023.66 1024.43 1025.55 1027.01 1027.22 1027.11 1027.31 1027.27 1027.95 1027.71 1027.99 1027.92 1027.99 1028.12 1027.93 1027.71 1027.48 1027.21 1027.18 1027.06
1013.21 1014.03 1014.70 1015.01 1015.59 1016.31 1017.01 1018.12 1019.37 1020.65 1021.61 1022.12 1022.86 1023.18 1023.33 1023.90 1024.25 1024.57 1025.10 1025.29 1026.05 1026.81 1027.83 1027.80 1027.77 1027.66 1027.88 1028.25 1028.08 1027.81 1027.86 1027.89 1027.81 1027.56 1027.17 1027.09 1026.85 1026.56
1013.92 1014.98 1015.80 1016.30 1016.74 1017.37 1018.19 1019.23 1020.26 1021.09 1021.87 1022.76 1023.41 1024.06 1024.62 1025.01 1025.51 1025.81 1026.08 1026.09 1026.42 1027.21 1027.94 1027.97 1028.10 1028.33 1028.51 1028.39 1028.34 1028.03 1027.94 1027.51 1027.36 1027.49 1027.42 1027.14 1026.64 1026.23
1014.95 1016.01 1016.88 1017.41 1018.28 1018.91 1019.56 1020.18 1020.78 1021.45 1022.14 1023.10 1024.03 1024.99 1024.85 1025.16 1025.63 1026.13 1026.54 1026.88 1027.14 1027.86 1028.29 1028.37 1028.19 1028.25 1028.65 1028.47 1028.63 1028.39 1028.05 1027.46 1027.23 1027.44 1027.32 1027.19 1026.78 1026.28
1016.24 1017.22 1018.14 1018.70 1019.18 1019.75 1020.69 1021.22 1021.86 1022.48 1023.00 1023.58 1024.57 1025.56 1026.11 1026.44 1026.67 1027.01 1027.22 1027.61 1027.55 1027.99 1028.07 1028.43 1028.19 1027.85 1027.89 1028.42 1028.53 1028.48 1028.14 1028.06 1027.92 1027.61 1027.33 1027.03 1026.39 1025.93
1017.09 1018.05 1018.61 1019.59 1020.39 1021.11 1021.83 1022.36 1022.50 1023.17 1023.86 1024.70 1025.16 1025.79 1026.68 1027.14 1027.59 1027.35 1027.31 1027.19 1027.52 1027.89 1028.19 1027.89 1027.88 1027.81 1027.65 1027.97 1028.40 1028.34 1028.11 1028.50 1028.40 1027.74 1027.52 1027.23 1026.61 1026.01
1018.07 1018.50 1019.54 1020.59 1021.49 1022.35 1021.97 1023.74 1023.90 1024.37 1024.65 1025.26 1025.74 1026.23 1026.85 1027.31 1027.52 1027.67 1027.62 1027.72 1028.04 1028.06 1028.17 1028.16 1028.12 1028.02 1027.83 1028.16 1028.30 1028.56 1028.64 1028.69 1028.33 1027.84 1027.65 1027.48 1026.71 1025.90
1018.93 1020.09 1020.54 1021.42 1022.21 1023.24 1023.26 1023.95 1024.74 1025.02 1025.39 1025.66 1026.07 1026.73 1027.08 1027.45 1027.65 1028.14 1028.24 1028.41 1028.53 1028.44 1028.16 1028.31 1028.64 1028.97 1028.89 1029.09 1028.98 1028.71 1028.88 1028.52 1028.20 1027.96 1027.68 1027.53 1027.03 1025.98
1020.17 1020.95 1021.55 1022.26 1022.92 1023.50 1024.20 1024.75 1025.27 1025.53 1025.89 1026.38 1026.82 1027.25 1027.49 1027.74 1028.15 1028.44 1028.77 1028.83 1028.96 1028.72 1028.47 1028.77 1029.15 1029.41 1029.58 1029.78 1029.65 1028.82 1028.07 1028.14 1027.98 1027.82 1027.46 1027.19 1026.44 1025.44
1021.33 1021.84 1022.46 1022.97 1023.71 1024.35 1024.85 1025.42 1025.98 1026.24 1026.51 1027.05 1027.51 1027.70 1027.84 1028.44 1028.88 1029.03 1029.29 1029.30 1029.22 1029.03 1029.16 1029.17 1029.20 1029.35 1029.27 1029.21 1029.36 1028.85 1028.07 1027.38 1027.22 1027.17 1026.90 1026.85 1026.43 1025.44
1022.39 1022.89 1023.48 1024.04 1024.76 1025.32 1026.00 1026.35 1026.75 1027.12 1027.59 1027.97 1028.29 1028.44 1028.73 1029.05 1029.32 1029.57 1029.63 1029.71 1029.79 1029.85 1029.78 1029.72 1029.36 1029.12 1029.05 1029.15 1029.07 1028.72 1028.25 1027.36 1026.64 1026.26 1025.90 1025.85 1025.99 1025.51
1023.80 1024.20 1024.81 1025.17 1025.72 1026.17 1026.78 1026.84 1027.24 1027.95 1028.41 1028.70 1029.21 1029.34 1029.53 1029.67 1029.84 1029.94 1030.00 1030.04 1030.22 1030.43 1030.35 1030.43 1030.11 1029.72 1029.48 1029.22 1029.06 1028.68 1028.23 1027.62 1026.95 1026.40 1025.79 1025.22 1024.81 1024.42
Thickness
5606 5602 5603 5607 5612 5610 5610 5606 5601 5587 5582 5582 5577 5574 5573 5568 5562 5557 5552 5547 5547 5547 5544 5544 5538 5531 5526 5523 5521 5518 5515 5513 5509 5506 5500 5497 5495 5493
5603 5599 5597 5603 5609 5606 5604 5603 5599 5592 5576 5577 5571 5565 5562 5556 5547 5546 5538 5534 5531 5531 5531 5531 5525 5521 5517 5513 5509 5505 5501 5498 5496 5493 5486 5482 5480 5479
5600 5599 5594 5595 5598 5596 5596 5595 5590 5588 5574 5566 5562 5551 5546 5544 5540 5537 5526 5525 5519 5521 5515 5515 5513 5509 5506 5502 5498 5493 5487 5482 5481 5476 5473 5469 5465 5463
5599 5596 5595 5587 5592 5587 5587 5587 5583 5583 5576 5565 5552 5543 5536 5529 5527 5529 5522 5511 5515 5507 5504 5501 5500 5495 5491 5487 5483 5479 5475 5469 5464 5462 5459 5452 5449 5447
5594 5594 5591 5586 5586 5584 5584 5584 5578 5576 5571 5563 5550 5536 5525 5518 5517 5514 5509 5506 5503 5497 5493 5489 5488 5483 5481 5476 5471 5466 5462 5458 5454 5450 5445 5439 5434 5433
5591 5591 5588 5587 5585 5581 5581 5577 5574 5570 5567 5560 5547 5535 5528 5520 5516 5509 5503 5499 5494 5487 5486 5478 5477 5471 5468 5464 5458 5453 5448 5444 5441 5435 5430 5425 5420 5416
5586 5586 5585 5584 5581 5578 5573 5571 5569 5565 5560 5555 5545 5532 5525 5520 5517 5509 5502 5492 5484 5478 5476 5468 5466 5463 5457 5452 5447 5441 5437 5433 5427 5420 5415 5409 5404 5400
5579 5577 5574 5570 5570 5567 5564 5559 5558 5560 5556 5552 5543 5540 5530 5525 5517 5510 5496 5484 5476 5468 5466 5460 5454 5451 5448 5443 5436 5429 5424 5417 5410 5405 5399 5392 5387 5380
5576 5570 5566 5564 5563 5556 5551 5552 5548 5541 5540 5547 5542 5535 5525 5521 5515 5501 5492 5483 5469 5457 5455 5448 5441 5440 5437 5430 5422 5415 5408 5401 5393 5388 5383 5376 5369 5364
5571 5568 5563 5555 5551 5549 5543 5537 5531 5527 5526 5528 5528 5522 5519 5512 5505 5495 5481 5465 5453 5446 5442 5437 5431 5426 5422 5415 5406 5398 5392 5387 5380 5374 5369 5362 5356 5349
5557 5557 5555 5548 5544 5542 5537 5524 5514 5507 5506 5506 5505 5503 5499 5494 5490 5480 5468 5460 5442 5431 5427 5424 5418 5412 5404 5397 5389 5383 5376 5370 5365 5361 5355 5348 5342 5336
5542 5539 5538 5535 5530 5527 5523 5515 5502 5491 5487 5483 5479 5479 5477 5472 5468 5461 5455 5446 5432 5415 5413 5410 5404 5398 5385 5381 5375 5367 5359 5352 5348 5344 5340 5334 5327 5322
5528 5523 5519 5519 5516 5512 5506 5498 5489 5479 5472 5468 5462 5458 5455 5448 5442 5437 5430 5425 5415 5406 5395 5391 5385 5379 5370 5360 5356 5351 5344 5338 5333 5329 5325 5318 5313 5307
5514 5508 5504 5501 5498 5494 5489 5481 5473 5465 5458 5450 5444 5436 5429 5425 5420 5414 5408 5405 5399 5388 5377 5371 5364 5356 5347 5341 5336 5332 5327 5324 5319 5311 5306 5301 5298 5292
5498 5492 5487 5484 5476 5472 5467 5462 5458 5452 5445 5436 5427 5416 5415 5410 5403 5396 5389 5384 5377 5367 5358 5351 5347 5340 5329 5323 5317 5313 5309 5309 5304 5297 5291 5284 5279 5274
5478 5470 5466 5464 5459 5456 5448 5443 5437 5430 5424 5419 5408 5398 5391 5385 5379 5375 5367 5360 5355 5348 5341 5333 5329 5327 5321 5310 5303 5298 5294 5288 5285 5281 5275 5270 5265 5257
5459 5454 5450 5443 5437 5431 5426 5422 5419 5413 5406 5396 5390 5381 5370 5362 5356 5355 5351 5348 5340 5332 5323 5320 5314 5309 5306 5298 5289 5285 5281 5271 5266 5265 5257 5248 5244 5239
5441 5436 5429 5422 5414 5407 5410 5394 5393 5388 5383 5376 5369 5363 5354 5346 5341 5336 5332 5327 5320 5314 5308 5302 5297 5293 5290 5283 5275 5269 5263 5254 5252 5247 5238 5228 5224 5220
5421 5413 5410 5403 5396 5388 5386 5381 5372 5367 5362 5357 5351 5342 5335 5328 5323 5315 5309 5304 5298 5294 5293 5286 5278 5272 5266 5254 5258 5252 5244 5242 5235 5228 5220 5212 5204 5202
5400 5394 5389 5384 5378 5372 5365 5359 5353 5349 5343 5336 5329 5322 5316 5310 5303 5297 5290 5284 5279 5279 5276 5268 5261 5254 5245 5236 5232 5237 5235 5227 5220 5211 5205 5198 5193 5189
5381 5377 5371 5366 5359 5352 5346 5339 5333 5328 5323 5315 5308 5304 5299 5290 5282 5277 5272 5268 5265 5265 5258 5252 5246 5241 5237 5231 5221 5219 5220 5215 5208 5200 5192 5182 5175 5172
5362 5357 5351 5346 5338 5331 5324 5319 5314 5309 5302 5296 5290 5285 5279 5273 5267 5261 5257 5253 5249 5244 5239 5234 5230 5226 5222 5218 5211 5203 5201 5201 5196 5189 5183 5176 5167 5161
5340 5335 5329 5325 5319 5314 5307 5304 5298 5289 5283 5278 5270 5265 5261 5255 5251 5247 5242 5238 5232 5225 5221 5215 5212 5208 5205 5203 5197 5190 5186 5182 5178 5173 5169 5168 5164 5161